www.pogodaiklimat.ru

Погода и климат >> Архив погоды >> Мексика >> Monclova


ПОГОДА в Monclova

  • Прогноз погоды в Monclova
  • Монитор погоды в Monclova
  • Климат города

АРХИВ ПОГОДЫ в Monclova

Время (UTC), дата Ветер
(напр.,м/с)
 
Видим.   Явления Облачность Т
(С)
Тd
(С)
f
(%)
Тe
(С)
Тes
(С)
Комфортность P
(гПа)
Po
(гПа)
Тmin
(С)
Tmax
(С)
R
(мм)
R24
(мм)
S
(см)
18 12.09 СВ 1 12 км ясно +33.4 +12.1 27 +33 +54 опасность
солнечного
удара
1013.9 945.3 +19.2 +34.0
21 12.09 СВ 1 12 км ясно +35.8 +9.6 20 +34 +49 очень
жарко
1010.3 942.6
00 13.09 СВ 1 12 км ясно +35.0 +8.7 20 +33 +34 жарко 1007.9 941.2 +19.2 +36.8
03 13.09 ЮВ 1 4000 м ясно +29.0 +9.9 30 +29 +29 жарко 1008.0 941.8
06 13.09 Ю 2 4000 м ясно +24.5 +8.9 37 +25 +25 комфорт 1008.9 942.3 +19.2 +36.8
09 13.09 Ю 2 4000 м ясно +24.0 +11.3 45 +25 +25 комфорт 1008.5 942.5
12 13.09 Ю 1 4000 м ясно +22.6 +9.7 44 +24 +24 комфорт 1008.4 942.1 +22.3 +36.8
15 13.09 ЮЗ 2 12 км ясно +26.0 +8.6 33 +26 +32 жарко 1011.0 942.7
18 13.09 ЮВ 2 12 км ясно +36.9 +10.3 20 +36 +53 опасность
солнечного
удара
1009.3 941.5 +21.4 +37.5
21 13.09 С 2 12 км ясно +39.8 +10.7 18 +39 +51 опасность
солнечного
удара
1005.5 938.8
00 14.09 С 1 12 км ясно +38.7 +10.0 18 +37 +38 очень
жарко
1003.2 937.5 +21.4 +41.2
03 14.09 Ю 1 4000 м ясно +33.0 +9.8 24 +32 +32 жарко 1004.2 937.9
06 14.09 Ю 3 4000 м ясно +31.0 +10.1 27 +31 +31 жарко 1004.8 938.7 +21.4 +41.2
09 14.09 Ю 2 4000 м ясно +28.0 +11.1 35 +29 +29 жарко 1006.9 939.0
12 14.09 Ю 3 4000 м ясно +27.0 +15.2 48 +30 +30 душно 1006.3 939.1 +26.6 +41.2
15 14.09 ЮВ 3 12 км ясно +30.0 +12.3 34 +31 +36 жарко 1007.5 940.8
18 14.09 СВ 2 12 км ясно +37.4 +14.4 26 +38 +56 опасность
солнечного
удара
1006.8 940.1 +26.2 +38.0
21 14.09 СЗ 2 12 км ясно +42.2 +12.0 17 +42 +54 опасность
перегрева
1003.5 937.5
00 15.09 СВ 3 12 км ясно +40.6 +11.6 18 +40 +40 очень
жарко
1001.6 936.5 +26.2 +43.2
03 15.09 Ю 4 4000 м ясно +34.2 +10.3 23 +33 +33 жарко 1003.2 938.3
06 15.09 Ю 3 4000 м ясно +32.4 +10.7 26 +32 +32 жарко 1004.6 939.5 +26.2 +43.2
09 15.09 ЮВ 2 4000 м ясно +28.6 +10.7 33 +29 +29 жарко 1007.5 939.5
12 15.09 ЮВ 1 4000 м ясно +26.0 +13.9 47 +28 +28 жарко 1008.1 940.9 +25.5 +43.2
15 15.09 В 1 12 км ясно +27.4 +17.0 53 +31 +38 душно 1010.2 942.6
18 15.09 СВ 1 12 км 5/0 1500 м
[Ac trans]
+33.6 +16.7 36 +36 +51 опасность
солнечного
удара
1008.8 941.6 +24.4 +34.2
21 15.09 СВ 1 12 км 4/0 1500 м
[Ac trans]
+39.0 +16.3 26 +41 +52 опасность
перегрева
1006.2 939.6
00 16.09 В 2 12 км ясно +38.0 +13.6 23 +38 +39 очень
жарко
1003.6 937.8 +24.4 +40.4
03 16.09 Ю 3 4000 м ясно +32.8 +12.8 30 +33 +33 жарко 1005.8 940.2
09 16.09 В 1 4000 м ясно +27.0 +15.1 48 +30 +30 душно 1009.2 943.6
12 16.09 Ю 1 4000 м ясно +24.8 +15.9 58 +28 +28 жарко 1010.2 944.3 +24.5 +40.4
15 16.09 Ю 2 12 км 1/0 2000 м
[Ac As]
+26.2 +19.2 65 +31 +37 очень
душно
1012.8 945.0
18 16.09 СВ 2 12 км ясно +33.0 +16.7 38 +36 +53 опасность
солнечного
удара
1013.2 945.4 +23.2 +33.6
21 16.09 С 3 12 км ясно +36.2 +16.6 31 +39 +49 очень
душно
1009.6 942.4
00 17.09 С 3 12 км ясно +34.8 +15.8 32 +37 +37 очень
душно
1008.4 941.9 +23.2 +37.1
03 17.09 СВ 2 4000 м ясно +30.6 +15.0 39 +33 +33 душно 1008.5 943.3
06 17.09 СЗ 1 4000 м ясно +28.4 +14.4 42 +31 +31 душно 1010.1 944.5 +23.2 +37.1
09 17.09 Ю 2 4000 м ясно +25.6 +14.1 49 +28 +28 жарко 1013.4 945.1
12 17.09 ЮВ 1 4000 м ясно +25.2 +18.3 66 +30 +30 душно 1012.8 944.7 +24.0 +37.1
15 17.09 СЗ 2 12 км ясно +27.2 +20.6 67 +34 +39 очень
душно
1014.7 946.5
18 17.09 ЮВ 2 12 км 4/4 600 м
[Cu med, cong]
+32.8 +20.5 48 +39 +50 очень
душно
1014.1 946.2 +24.6 +33.4
21 17.09 ЮВ 2 12 км 4/4 600 м
[Cu med, cong]
+36.2 +19.4 37 +41 +49 опасность
перегрева
1008.7 941.6
00 18.09 СВ 3 12 км ясно +35.0 +18.9 39 +40 +40 очень
душно
1008.6 942.2 +24.6 +37.2
03 18.09 ЮВ 1 4000 м ясно +31.6 +18.0 44 +36 +36 очень
душно
1011.1 944.8
06 18.09 Ю 2 4000 м ясно +29.2 +18.5 53 +34 +34 очень
душно
1011.3 944.9 +24.6 +37.2
09 18.09 ЮВ 2 4000 м ясно +27.6 +20.4 65 +34 +34 очень
душно
1012.4 944.1
12 18.09 ЮЗ 1 4000 м ясно +25.6 +20.3 73 +32 +32 очень
душно
1012.9 945.1 +25.0 +37.2
15 18.09 С 1 12 км ясно +27.2 +20.0 65 +33 +40 очень
душно
1014.4 946.4
18 18.09 С 1 12 км 4/4 600 м
[Cu med, cong]
+33.4 +20.9 48 +41 +53 опасность
перегрева
1013.4 945.9 +24.0 +33.8
21 18.09 С 1 12 км 6/6 600 м
[Cu med, cong]
+36.2 +19.4 37 +41 +47 опасность
перегрева
1010.4 943.3
00 19.09 С 2 12 км 6/6 600 м
[Cu med, cong]
+35.4 +19.7 40 +41 +41 опасность
перегрева
1007.9 941.5 +24.0 +37.5
03 19.09 Ю 3 4000 м ясно +31.7 +18.0 44 +36 +36 очень
душно
1008.2 942.1
06 19.09 Ю 1 4000 м ясно +29.6 +19.6 55 +36 +36 очень
душно
1008.9 942.7 +24.0 +37.5
09 19.09 Ю 2 4000 м ясно +28.5 +20.0 60 +35 +35 очень
душно
1009.2 942.8
12 19.09 Ю 1 4000 м ясно +26.5 +19.9 67 +32 +32 очень
душно
1009.6 943.0 +26.2 +37.5

 

Местоположение метеостанции Monclova (Мексика): широта 26.88 долгота -101.40 высота над уровнем моря 615 м.

В архиве по умолчанию представлена погода в Monclova за последнюю неделю. Архивные данные за месяц целиком и за предыдущие месяцы, начиная с января 2011 года, Вы можете получить, выбрав интересующий диапазон дат из раскрывающегося списка и нажав кнопку "Ввод!".

Внимание! Время в таблицах - всемирное. Для получения местного времени необходимо прибавить поправку, которая в Monclova равна -6 ч.

Смотрите также архив погоды в соседних городах и на ближайших метеорологических станциях:

Погода в Monterrey (Мексика) (168 км)
Погода в Saltillo (Мексика) (173 км)
Погода в Piedras Negras (Мексика) (221 км)
Погода в Torreon (Мексика) (250 км)
Погода в Hidalgo del Parral (Мексика) (417 км)
Погода в Ciudad Victoria (Мексика) (418 км)
Погода в Sombrerete (Мексика) (424 км)
Погода в Durango (Мексика) (450 км)
Погода в Tepehuanes (Мексика) (464 км)
Погода в Zacatecas (Мексика) (469 км)

Пояснения к столбцам:

Ветер - указаны скорость ветра в м/с - средняя за 10 мин, порывы в срок и между сроками (в фигурных скобках) и направление, откуда дует ветер: С - северный, СВ - северо-восточный, В - восточный, ЮВ - юго-восточный, Ю - южный, ЮЗ - юго-западный, З - западный, СЗ - северо-западный.
Видимость - горизонтальная дальность видимости в метрах или километрах. При видимости от 1 до 10 км при отсутствии осадков обычно наблюдается дымка, при ухудшении видимости до 1 км и менее - туман. В сухую погоду видимость может ухудшаться дымом, пылью или мглою.
Явления - указаны атмосферные явления, наблюдавшиеся в срок или в последний час перед сроком; фигурными скобками обозначены явления, наблюдавшиеся между сроками (за 1-3 часа до срока); квадратными скобками обозначены град или гололедные отложения с указанием их диаметра в мм.
Облачность - указаны через наклонную черту общая и нижняя облачность в баллах и высота нижней границы облаков в метрах; квадратными скобками обозначены формы облаков: Ci - перистые, Cs - перисто-слоистые, Cc - перисто-кучевые, Ac - высококучевые, As - высокослоистые, Sc - слоисто-кучевые, Ns - слоисто-дождевые, Cu - кучевые, Cb - кучево-дождевые. Подробнее классификацию облаков см. в Атласе облаков (PDF).
T - Температура воздуха - температура, измеренная на высоте 2 м над землей.
Td - Температура точки росы - температура, при понижении до которой содержащийся в воздухе водяной пар достигнет насыщения.
f - Относительная влажность воздуха - влажноcть воздуха, измеренная на высоте 2 м над землей.
Te - Эффективная температура - температура, которую ощущает одетый по сезону человек в тени. Характеристика душности погоды. При расчете учитывается влияние влажности воздуха и скорости ветра на теплоощущения человека.
Tes - Эффективная температура на солнце - температура, которую ощущает человек, с поправкой на солнечный нагрев. Характеристика знойности погоды. Зависит от высоты солнца над горизонтом, облачности и скорости ветра. Ночью, в пасмурную погоду, а также при ветре 12 м/с и более поправка равна нулю.
P - Атмосферное давление - приведенное к уровню моря атмосферное давление.
Po - Атмосферное давление - измеренное на уровне метеостанции атмосферное давление.
Tmin - Минимальная температура - минимум температуры воздуха на высоте 2 м над землей.
Tmax - Максимальная температура - максимум температуры воздуха на высоте 2 м над землей.
R - Количество осадков - Количество выпавших осадков за период времени, мм. При наведении курсора мыши на число - период времени, за который выпало указанное количество осадков.
R24 - Количество осадков - Количество выпавших осадков за 24 часа, мм.
S - Снежный покров - Высота снежного покрова, см. При наведении курсора мыши на число - состояние снежного покрова и степень покрытия местности в баллах.